Location: Kitchener-Waterloo
(43.4500°N, 80.5000°W)
Time: 17:12:12
(UTC-04:00)

Amateur Radio Satellites - All Passes

Search period start: 20 October 2014 16:42
Search period end: 21 October 2014 16:42
Location: Kitchener-Waterloo, 43.4500°N, 80.5000°W

Satellite Date Start Highest point End Downlink Frequencies (MHz)
Time Altitude Azimuth
KITSAT 1 20 Oct 17:28:11 17:32:59 16° 342° (NNW) 17:37:48 435.175 FM
SO-50 20 Oct 17:28:31 17:29:12 10° 333° (NNW) 17:29:54 436.795 FM
AO-7 20 Oct 17:32:13 17:40:04 46° 260° (W) 17:47:59 29.400 - 29.500 MHz
UOSAT-12 20 Oct 17:32:59 17:37:21 39° 312° (NW) 17:41:48 437.025 FM, 437.400 FM
Hamsat 20 Oct 17:40:32 17:44:16 31° 70° (ENE) 17:47:59 145.90 MHz
OPAL 20 Oct 17:55:47 17:59:59 27° 97° (E) 18:04:09 ?
Saudisat 1A 20 Oct 17:56:31 18:00:57 68° 54° (NE) 18:05:20 436.775 MHz
ISS 20 Oct 18:05:01 18:07:35 20° 355° (N) 18:10:09 145.800 FM
JAS-2 20 Oct 18:12:26 18:18:09 85° 256° (WSW) 18:24:43 435.800 - 435.900 CW/SSB, 435.910 FM
Uosat F 20 Oct 18:12:27 18:15:54 19° 268° (W) 18:19:23 435.120 FM
SO-67 20 Oct 19:03:42 19:06:42 29° 71° (ENE) 19:09:44 435.3500 MHz FM
Hamsat 20 Oct 19:16:50 19:20:14 23° 266° (W) 19:23:39 145.90 MHz
KITSAT 1 20 Oct 19:27:57 19:32:24 15° 14° (NNE) 19:36:51 435.175 FM
STRAND 1 20 Oct 19:32:16 19:36:44 29° 95° (E) 19:41:10 ?
OPAL 20 Oct 19:34:22 19:38:57 38° 294° (WNW) 19:43:29 ?
Saudisat 1A 20 Oct 19:37:40 19:39:58 14° 251° (WSW) 19:42:15 436.775 MHz
HO-68 20 Oct 19:37:44 19:42:25 19° 52° (NE) 19:47:06 435.675 MHz FM
ISS 20 Oct 19:42:10 19:45:03 26° 16° (NNE) 19:47:56 145.800 FM
JAS-2 20 Oct 20:02:16 20:04:29 12° 277° (W) 20:06:47 435.800 - 435.900 CW/SSB, 435.910 FM
SO-67 20 Oct 20:37:31 20:39:45 16° 267° (W) 20:41:59 435.3500 MHz FM
STRAND 1 20 Oct 21:11:15 21:15:58 37° 293° (WNW) 21:20:39 ?
Oscar 11 20 Oct 21:15:19 21:18:32 21° 65° (ENE) 21:21:46 145.825 FM, Beacon 2401.500 USB
ISS 20 Oct 21:18:42 21:22:03 78° 214° (SW) 21:25:22 145.800 FM
HO-68 20 Oct 21:21:58 21:29:07 86° 72° (ENE) 21:36:21 435.675 MHz FM
KITSAT 1 20 Oct 21:23:21 21:30:40 36° 42° (NE) 21:37:57 435.175 FM
ZACube-1 20 Oct 21:51:05 21:54:40 23° 66° (ENE) 21:58:14 437.345 MHz
AO-40 20 Oct 21:52:32 23:48:44 25° 216° (SW) 03:28:52 Beacon 2401.320
RS-15 20 Oct 21:54:43 22:02:04 21° 100° (E) 22:09:21 29.354 - 29.394 USB, Beacon 29.352 USB
UKube-1 20 Oct 22:04:14 22:08:34 79° 75° (ENE) 22:12:57 145.840 MHz, 145.915 MHz
SO-50 20 Oct 22:32:59 22:37:25 35° 46° (NE) 22:41:53 436.795 FM
FUNcube-1 20 Oct 22:35:48 22:40:21 62° 74° (ENE) 22:44:52 145.950 - 145.970 MHz USB
Oscar 11 20 Oct 22:50:25 22:54:28 39° 262° (W) 22:58:33 145.825 FM, Beacon 2401.500 USB
ISS 20 Oct 22:57:48 22:58:13 10° 231° (SW) 22:58:37 145.800 FM
HO-68 20 Oct 23:13:04 23:17:40 18° 271° (W) 23:22:19 435.675 MHz FM
KITSAT 1 20 Oct 23:18:38 23:26:37 66° 244° (WSW) 23:34:33 435.175 FM
ZACube-1 20 Oct 23:26:30 23:30:50 39° 262° (W) 23:35:08 437.345 MHz
RS-15 21 Oct 00:01:41 00:12:41 85° 121° (ESE) 00:23:40 29.354 - 29.394 USB, Beacon 29.352 USB
MaSat-1 21 Oct 00:12:09 00:13:23 11° 104° (ESE) 00:14:35 437.345 MHz
SO-50 21 Oct 00:13:35 00:17:59 35° 244° (WSW) 00:22:24 436.795 FM
FUNcube-1 21 Oct 00:14:41 00:17:06 14° 270° (W) 00:19:31 145.950 - 145.970 MHz USB
UOSAT-12 21 Oct 00:21:21 00:25:45 37° 47° (NE) 00:30:04 437.025 FM, 437.400 FM
KITSAT 1 21 Oct 01:17:44 01:20:26 12° 263° (W) 01:23:08 435.175 FM
Oscar 19 21 Oct 01:43:48 01:46:35 15° 90° (E) 01:49:21 437.125 CW, 437.150 USB
MaSat-1 21 Oct 01:44:30 01:48:46 71° 298° (WNW) 01:52:37 437.345 MHz
UOSAT-12 21 Oct 02:01:41 02:05:49 31° 245° (WSW) 02:09:53 437.025 FM, 437.400 FM
RS-15 21 Oct 02:16:35 02:26:23 36° 328° (NNW) 02:36:19 29.354 - 29.394 USB, Beacon 29.352 USB
JAS-1B 21 Oct 02:26:53 02:32:48 36° 98° (E) 02:39:38 435.800 - 435.900 CW/SSB
Oscar 16 21 Oct 02:27:17 02:32:04 38° 98° (E) 02:36:49 437.025 USB, Beacon 2401.1428
Uribyol 2 21 Oct 02:39:31 02:43:29 22° 93° (E) 02:47:26 436.500 FM
Gurwin Techsat 1B 21 Oct 02:41:01 02:42:00 11° 87° (E) 02:42:59 435.225 FM
ITAMSAT 1 21 Oct 02:44:19 02:48:24 23° 93° (E) 02:52:27 435.822 SSB
TMSAT-1 21 Oct 02:55:09 02:56:07 10° 87° (E) 02:57:04 436.925 FM
AO-Echo 21 Oct 02:57:18 03:02:17 40° 97° (E) 03:07:14 ?
Oscar 19 21 Oct 03:21:20 03:26:27 70° 287° (WNW) 03:31:31 437.125 CW, 437.150 USB
AO-27 21 Oct 03:28:02 03:33:13 57° 101° (E) 03:38:20 436.795 MHz FM
Sapphire 21 Oct 04:05:20 04:07:11 12° 102° (ESE) 04:09:02 437.095 MHz 1200 baud AX-25 AFSK
Oscar 16 21 Oct 04:06:57 04:11:16 28° 295° (WNW) 04:15:33 437.025 USB, Beacon 2401.1428
Gurwin Techsat 1B 21 Oct 04:17:23 04:22:45 84° 104° (ESE) 04:28:04 435.225 FM
JAS-1B 21 Oct 04:17:35 04:23:28 43° 292° (WNW) 04:30:20 435.800 - 435.900 CW/SSB
Uribyol 2 21 Oct 04:18:12 04:23:14 49° 290° (WNW) 04:28:13 436.500 FM
ITAMSAT 1 21 Oct 04:23:07 04:28:08 48° 290° (WNW) 04:33:07 435.822 SSB
PCSat 21 Oct 04:25:59 04:29:54 21° 106° (ESE) 04:33:50 145.825 MHz
TMSAT-1 21 Oct 04:31:28 04:36:49 84° 104° (ESE) 04:42:07 436.925 FM
RS-15 21 Oct 04:34:43 04:43:08 24° 3° (N) 04:51:42 29.354 - 29.394 USB, Beacon 29.352 USB
AO-Echo 21 Oct 04:36:22 04:40:52 29° 294° (WNW) 04:45:23 ?
Uosat F 21 Oct 04:39:51 04:42:46 15° 90° (E) 04:45:40 435.120 FM
Oscar 19 21 Oct 05:04:35 05:04:50 10° 305° (NW) 05:05:06 437.125 CW, 437.150 USB
AO-27 21 Oct 05:08:30 05:12:17 21° 299° (WNW) 05:16:03 436.795 MHz FM
OPAL 21 Oct 05:11:23 05:16:27 58° 69° (ENE) 05:21:28 ?
JAS-2 21 Oct 05:21:04 05:25:50 17° 86° (E) 05:30:38 435.800 - 435.900 CW/SSB, 435.910 FM
AO-7 21 Oct 05:31:44 05:39:56 58° 103° (ESE) 05:48:06 29.400 - 29.500 MHz
Sapphire 21 Oct 05:44:19 05:49:44 85° 119° (ESE) 05:55:11 437.095 MHz 1200 baud AX-25 AFSK
Gurwin Techsat 1B 21 Oct 05:59:09 06:02:00 15° 302° (WNW) 06:04:50 435.225 FM
PCSat 21 Oct 06:07:30 06:12:50 60° 304° (NW) 06:18:14 145.825 MHz
TMSAT-1 21 Oct 06:13:11 06:16:01 15° 302° (WNW) 06:18:51 436.925 FM
Uosat F 21 Oct 06:17:00 06:22:01 67° 287° (WNW) 06:27:01 435.120 FM
STRAND 1 21 Oct 06:49:10 06:54:03 47° 70° (ENE) 06:58:59 ?
RS-15 21 Oct 06:49:16 06:59:35 41° 37° (NE) 07:10:12 29.354 - 29.394 USB, Beacon 29.352 USB
OPAL 21 Oct 06:52:05 06:55:39 19° 266° (W) 06:59:14 ?
Hamsat 21 Oct 07:00:14 07:04:21 54° 100° (E) 07:08:27 145.90 MHz
JAS-2 21 Oct 07:04:03 07:11:45 83° 104° (ESE) 07:19:38 435.800 - 435.900 CW/SSB, 435.910 FM
AO-7 21 Oct 07:25:03 07:32:21 36° 303° (WNW) 07:39:39 29.400 - 29.500 MHz
Sapphire 21 Oct 07:30:02 07:33:52 19° 320° (NW) 07:37:44 437.095 MHz 1200 baud AX-25 AFSK
PCSat 21 Oct 07:54:46 07:57:26 14° 326° (NW) 08:00:06 145.825 MHz
SO-67 21 Oct 07:58:28 08:01:32 29° 96° (E) 08:04:34 435.3500 MHz FM
Saudisat 1A 21 Oct 08:06:27 08:08:24 13° 109° (ESE) 08:10:21 436.775 MHz
STRAND 1 21 Oct 08:29:31 08:33:28 22° 267° (W) 08:37:28 ?
Hamsat 21 Oct 08:37:32 08:39:52 15° 297° (WNW) 08:42:13 145.90 MHz
JAS-2 21 Oct 08:50:13 08:55:58 24° 302° (WNW) 09:01:54 435.800 - 435.900 CW/SSB, 435.910 FM
HO-68 21 Oct 08:50:48 08:54:25 14° 87° (E) 08:58:01 435.675 MHz FM
RS-15 21 Oct 09:01:47 09:12:52 74° 242° (WSW) 09:24:27 29.354 - 29.394 USB, Beacon 29.352 USB
SO-67 21 Oct 09:32:01 09:34:18 17° 293° (WNW) 09:36:36 435.3500 MHz FM
Saudisat 1A 21 Oct 09:42:59 09:47:22 73° 306° (NW) 09:51:48 436.775 MHz
UKube-1 21 Oct 09:53:18 09:55:04 12° 90° (E) 09:56:50 145.840 MHz, 145.915 MHz
MaSat-1 21 Oct 09:55:37 09:57:30 16° 52° (NE) 09:59:16 437.345 MHz
FUNcube-1 21 Oct 10:27:01 10:27:37 10° 88° (E) 10:28:13 145.950 - 145.970 MHz USB
HO-68 21 Oct 10:35:56 10:43:11 81° 106° (ESE) 10:50:22 435.675 MHz FM
Oscar 11 21 Oct 10:36:45 10:40:40 33° 97° (E) 10:44:33 145.825 FM, Beacon 2401.500 USB
ZACube-1 21 Oct 11:14:42 11:18:41 36° 97° (E) 11:22:33 437.345 MHz
RS-15 21 Oct 11:16:52 11:23:16 17° 262° (W) 11:29:49 29.354 - 29.394 USB, Beacon 29.352 USB
Saudisat 1A 21 Oct 11:25:30 11:27:44 14° 326° (NW) 11:29:58 436.775 MHz
UKube-1 21 Oct 11:27:21 11:31:42 65° 287° (WNW) 11:36:01 145.840 MHz, 145.915 MHz
MaSat-1 21 Oct 11:31:24 11:33:08 16° 254° (WSW) 11:34:46 437.345 MHz
KITSAT 1 21 Oct 11:56:54 12:01:14 16° 100° (E) 12:05:35 435.175 FM
FUNcube-1 21 Oct 12:00:15 12:04:33 72° 285° (WNW) 12:08:44 145.950 - 145.970 MHz USB
Oscar 11 21 Oct 12:13:15 12:16:41 24° 293° (WNW) 12:20:06 145.825 FM, Beacon 2401.500 USB
HO-68 21 Oct 12:24:49 12:30:06 23° 305° (NW) 12:35:22 435.675 MHz FM
Sapphire 21 Oct 12:48:50 12:52:28 18° 39° (NE) 12:56:05 437.095 MHz 1200 baud AX-25 AFSK
ZACube-1 21 Oct 12:51:34 12:54:52 22° 295° (WNW) 12:58:05 437.345 MHz
Oscar 19 21 Oct 13:01:19 13:05:29 25° 64° (ENE) 13:09:39 437.125 CW, 437.150 USB
AO-27 21 Oct 13:11:03 13:13:45 14° 58° (ENE) 13:16:27 436.795 MHz FM
PCSat 21 Oct 13:11:25 13:15:54 25° 45° (NE) 13:20:22 145.825 MHz
JAS-1B 21 Oct 13:15:24 13:20:31 30° 65° (ENE) 13:25:23 435.800 - 435.900 CW/SSB
Oscar 16 21 Oct 13:45:14 13:50:20 63° 72° (ENE) 13:55:27 437.025 USB, Beacon 2401.1428
KITSAT 1 21 Oct 13:47:15 13:55:19 78° 119° (ESE) 14:03:24 435.175 FM
Uribyol 2 21 Oct 13:58:15 14:03:00 37° 67° (ENE) 14:07:48 436.500 FM
Gurwin Techsat 1B 21 Oct 14:01:39 14:05:32 21° 62° (ENE) 14:09:26 435.225 FM
ISS 21 Oct 14:02:25 14:04:47 18° 134° (SE) 14:07:09 145.800 FM
ITAMSAT 1 21 Oct 14:03:14 14:08:01 39° 68° (ENE) 14:12:51 435.822 SSB
AO-Echo 21 Oct 14:11:27 14:16:09 54° 71° (ENE) 14:21:03 ?
TMSAT-1 21 Oct 14:15:27 14:19:18 21° 62° (ENE) 14:23:10 436.925 FM
SO-50 21 Oct 14:29:03 14:33:27 59° 120° (ESE) 14:38:01 436.795 FM
Sapphire 21 Oct 14:31:15 14:36:43 86° 59° (ENE) 14:42:09 437.095 MHz 1200 baud AX-25 AFSK
Oscar 19 21 Oct 14:39:41 14:44:35 43° 261° (W) 14:49:30 437.125 CW, 437.150 USB
AO-7 21 Oct 14:42:37 14:48:22 21° 49° (NE) 14:54:07 29.400 - 29.500 MHz
AO-27 21 Oct 14:47:20 14:52:32 85° 256° (WSW) 14:57:48 436.795 MHz FM
PCSat 21 Oct 14:54:22 14:59:42 59° 244° (WSW) 15:04:59 145.825 MHz
JAS-1B 21 Oct 15:05:29 15:11:09 39° 262° (W) 15:16:28 435.800 - 435.900 CW/SSB
Oscar 16 21 Oct 15:26:52 15:30:07 17° 269° (W) 15:33:23 437.025 USB, Beacon 2401.1428
ISS 21 Oct 15:37:52 15:41:11 63° 331° (NNW) 15:44:31 145.800 FM
Uribyol 2 21 Oct 15:38:01 15:42:31 29° 265° (W) 15:47:04 436.500 FM
Gurwin Techsat 1B 21 Oct 15:39:53 15:45:05 57° 259° (W) 15:50:20 435.225 FM
Oscar 10/S400 21 Oct 15:41:12 15:58:27 44° 158° (SSE) 16:31:20 145.825 - 145.975 CW/USB, Beacon 145.810 USB
ITAMSAT 1 21 Oct 15:43:10 15:47:35 28° 265° (W) 15:52:04 435.822 SSB
KITSAT 1 21 Oct 15:44:31 15:51:32 31° 321° (NW) 15:58:35 435.175 FM
AO-Echo 21 Oct 15:52:03 15:55:19 18° 269° (W) 15:58:39 ?
TMSAT-1 21 Oct 15:53:35 15:58:48 57° 259° (W) 16:04:02 436.925 FM
Uosat F 21 Oct 15:53:52 15:57:55 25° 64° (ENE) 16:01:59 435.120 FM
SO-50 21 Oct 16:10:51 16:14:24 22° 320° (NW) 16:18:02 436.795 FM
UOSAT-12 21 Oct 16:13:03 16:17:37 61° 120° (ESE) 16:22:16 437.025 FM, 437.400 FM
Sapphire 21 Oct 16:16:46 16:19:22 14° 257° (WSW) 16:21:57 437.095 MHz 1200 baud AX-25 AFSK
Saudisat 1A 21 Oct 16:29:50 16:33:04 19° 40° (NE) 16:36:17 436.775 MHz
AO-27 21 Oct 16:31:59 16:32:49 10° 273° (W) 16:33:39 436.795 MHz FM
